Dewpoint
29 26 24 20 22 25 25 25 25 25 25 23 21 18 18 18 20 23 25 27 26 23 23 24 24 24 24 24 24 26 27 27 27 28 28 29 29 29 29 29 28 25 25 28 28 28 29 30 29 30 29 28 28 27 25 23 22 21 19 19 16 17 17 14 14 14 14 13 13 12 12 12 10 13 14 11 13 14 14 16 13 14 14 14 14 14
30 25 23 24 25 25 26 26 25 25 24 22 20 18 19 20 19 23 26 28 28 22 23 23 24 23 24 24 24 25 27 26 27 27 28 29 30 30 29 29 29 26 28 28 26 28 29 29 29 29 29 34 25 27 25 22 21 20 20 17 17 18 16 12 14 16 14 15 17 13 13 12 11 10 11 11 12 15 14 15 13 13 13 13 13 14
24 24 22 26 27 26 25 26 26 23 22 21 18 17 15 17 22 24 24 26 27 24 23 23 23 23 24 24 25 25 26 27 27 27 28 29 29 29 29 29 29 27 25 26 25 26 26 29 29 28 29 27 27 27 24 22 20 20 20 18 20 20 18 14 18 18 14 15 17 13 14 12 12 11 12 12 15 14 12 12 12 12 12 13 12 12
20 22 24 27 26 25 24 25 24 23 22 19 18 19 14 19 15 15 22 24 25 23 22 23 24 24 24 24 25 27 26 26 27 28 29 30 30 29 29 29 29 27 26 26 26 24 24 26 27 28 28 27 27 27 24 21 19 20 24 18 18 20 19 15 19 18 16 19 17 15 17 16 12 11 14 12 12 12 11 12 11 11 11 12 12 11
20 22 25 26 25 24 23 24 24 21 18 21 20 16 16 17 18 16 19 22 20 21 24 21 19 18 21 21 21 25 29 28 29 30 30 30 31 30 30 31 30 27 26 26 26 24 24 25 27 26 27 28 26 25 24 21 18 19 20 19 19 20 19 16 19 16 18 20 14 13 16 16 14 13 12 11 10 11 12 12 10 9 11 12 12 11
23 24 28 26 24 24 24 24 23 22 18 19 20 21 21 20 19 21 22 19 19 19 22 21 15 16 19 20 20 21 27 27 28 29 30 30 30 31 31 31 30 29 27 27 25 24 26 27 27 26 27 26 26 24 25 21 20 19 21 20 18 20 20 15 15 18 20 16 12 11 13 10 10 9 10 9 9 10 9 10 10 9 9 11 10 10
23 26 28 26 23 23 23 22 23 23 18 18 18 22 20 20 20 19 19 16 12 11 16 23 12 11 18 19 19 21 24 26 28 27 30 31 31 31 31 31 31 30 27 28 26 26 27 28 27 25 25 26 25 25 25 21 20 20 22 19 19 19 20 17 15 17 19 15 13 11 14 13 11 10 11 10 10 10 9 11 8 8 8 9 9 9
25 24 26 24 23 23 22 23 23 21 18 16 20 20 18 18 17 17 17 15 15 21 22 23 18 14 14 19 21 21 23 25 25 26 28 29 30 31 31 32 32 32 27 27 26 26 28 28 26 25 25 25 25 26 25 22 21 19 20 20 19 20 17 16 16 18 17 17 16 12 14 15 11 11 11 11 11 10 12 9 8 7 7 7 8 8
22 23 24 24 22 22 22 22 23 23 20 20 21 22 21 21 19 19 18 18 18 17 14 18 21 14 9 17 18 21 21 22 22 24 25 27 29 30 30 31 32 33 29 27 27 27 28 28 27 26 25 25 26 26 24 21 19 20 21 22 20 18 18 15 15 18 14 18 17 13 14 12 14 13 15 14 13 10 10 8 7 6 6 6 6 7
22 24 24 24 23 21 23 23 24 24 22 22 23 20 21 22 22 21 18 18 14 13 7 15 20 13 17 19 20 20 21 21 22 23 24 26 27 28 29 29 30 31 29 28 27 28 29 29 27 26 25 25 25 25 27 25 21 20 20 21 20 17 17 15 15 15 14 14 17 13 14 12 10 12 11 11 9 8 9 7 7 6 6 6 6 6
23 30 28 25 23 24 24 25 24 24 24 25 24 23 21 20 20 20 19 15 13 3 10 16 19 18 14 18 18 16 13 17 20 22 25 26 27 28 28 29 30 32 29 28 28 29 29 29 26 26 26 25 24 24 24 23 21 19 20 19 16 16 17 15 14 15 14 14 14 14 14 12 10 11 11 11 8 8 8 7 7 6 6 6 5 6
23 25 24 26 28 27 25 24 27 25 26 24 22 21 18 17 14 17 17 13 6 4 9 14 20 19 10 15 17 22 21 20 22 22 24 25 26 28 29 30 31 31 29 28 29 29 29 28 27 26 25 25 24 23 23 23 22 21 20 18 15 16 17 14 17 16 14 14 14 14 14 12 11 11 11 10 8 8 8 7 7 7 6 5 6 5
19 22 24 24 29 24 23 21 23 24 24 24 21 17 8 1 8 -1 7 8 2 1 12 16 18 15 17 18 21 22 24 24 22 25 25 26 26 28 29 30 31 29 28 28 29 29 29 27 26 25 25 25 24 23 22 22 21 19 19 17 15 15 17 15 15 13 13 13 12 13 14 12 15 12 12 10 8 8 8 7 6 6 5 5 5 4
17 22 21 23 21 23 22 18 19 17 20 22 19 12 6 2 -3 -1 -2 2 3 11 14 17 16 15 17 18 22 22 24 24 25 26 26 27 27 28 29 30 29 29 28 28 29 29 29 28 26 25 25 24 24 23 22 21 24 19 20 17 16 15 16 16 15 13 13 12 13 13 14 13 12 11 13 10 8 8 8 8 6 6 5 5 4 4
7 11 13 21 19 22 22 20 20 19 21 20 22 19 10 2 2 1 1 0 1 9 13 15 8 8 7 19 20 22 23 24 25 26 27 27 28 28 29 30 30 29 28 28 28 29 29 28 27 25 25 24 23 22 22 21 19 18 17 17 16 15 16 15 14 13 13 12 12 13 14 13 13 13 13 10 12 9 7 7 6 5 5 4 4 4
15 13 15 23 21 22 22 23 24 22 21 22 22 21 15 9 14 8 4 2 4 10 14 6 10 13 15 21 22 24 26 27 28 28 29 30 30 30 31 31 31 31 30 28 28 29 29 28 27 25 24 24 23 22 21 20 18 17 16 16 15 15 15 14 16 12 13 11 13 13 13 12 15 13 12 12 10 8 7 7 6 4 4 4 4 3
13 9 19 25 24 20 21 24 22 21 12 18 20 12 17 19 17 7 13 13 13 5 10 3 15 18 20 21 22 23 25 26 26 27 27 28 28 29 30 31 32 32 30 28 28 29 29 27 26 24 23 23 23 22 21 18 17 15 16 18 14 15 15 13 16 13 13 11 12 12 13 11 10 10 9 7 6 7 7 7 5 4 4 4 3 5
3 6 19 21 21 25 23 24 24 24 23 19 11 18 23 22 19 15 8 2 -4 3 9 10 10 15 16 13 21 20 19 21 23 24 26 27 27 29 30 31 32 33 32 29 29 29 29 27 25 24 24 23 22 21 19 18 17 17 16 15 13 17 14 13 13 13 13 11 12 13 13 11 10 10 8 7 7 7 6 5 4 3 4 2 3 5
17 9 17 24 22 23 23 23 21 24 25 22 19 20 16 7 7 14 6 5 2 1 5 12 7 13 14 18 19 17 17 16 18 21 25 26 27 27 29 30 31 32 29 28 29 29 28 26 24 24 23 23 22 22 19 19 18 17 16 16 14 13 14 13 15 14 12 12 14 14 13 11 10 9 8 7 7 6 5 4 3 3 3 2 4 4
17 4 14 19 22 23 20 22 14 19 24 24 24 22 21 15 6 9 9 6 10 5 5 10 7 12 16 19 17 15 15 16 18 21 24 26 27 28 29 30 31 32 29 28 28 29 29 26 24 24 23 22 21 21 20 19 18 16 15 17 17 19 15 14 13 13 11 12 13 12 11 9 9 10 8 7 5 4 4 3 4 3 2 2 4 3
17 11 2 15 19 17 13 19 15 18 15 19 20 15 19 11 17 16 12 13 12 0 2 1 11 14 16 21 18 16 16 17 19 21 25 26 27 28 28 29 31 32 29 27 27 28 28 26 24 24 23 22 21 21 22 19 17 14 15 14 16 14 14 13 13 13 12 13 12 11 9 8 7 6 6 4 4 4 3 3 4 2 2 4 2 3
13 16 6 13 13 12 11 18 20 20 20 19 20 15 18 11 10 7 11 10 13 10 9 2 12 15 17 20 18 17 18 20 21 24 26 27 27 27 27 29 31 32 30 28 27 27 28 26 25 24 23 22 21 21 21 20 17 15 14 14 15 16 15 13 14 12 13 12 13 9 8 7 6 6 5 3 3 4 3 2 2 2 3 2 2 3
17 17 13 12 13 9 9 20 22 21 21 21 19 17 16 10 10 4 4 9 9 9 5 6 8 17 21 23 20 21 21 22 24 26 27 27 25 25 27 30 32 31 30 29 27 27 28 26 25 23 22 21 21 21 20 18 16 14 14 15 15 15 15 14 13 14 14 12 11 8 8 7 5 4 3 2 2 2 2 3 2 4 3 2 2 3
27 10 6 8 10 8 12 16 22 21 22 19 19 19 17 12 14 16 12 4 10 8 10 4 10 17 18 24 25 24 25 25 27 27 27 24 23 25 27 30 31 29 28 27 26 27 27 26 25 23 22 21 21 21 19 18 15 14 15 15 16 15 15 14 14 14 12 11 10 8 7 4 4 2 2 1 2 2 2 2 2 3 3 2 2 2
13 10 7 1 1 8 9 11 15 17 19 18 14 16 16 13 10 7 6 5 13 12 15 12 12 13 16 24 26 26 25 25 24 23 23 22 22 25 28 30 30 28 27 26 26 26 26 26 25 24 22 22 21 21 19 17 15 13 14 15 14 16 15 15 16 12 12 11 9 8 6 3 3 2 1 1 2 2 2 2 2 2 2 2 2 2
7 11 4 -3 -8 -4 -2 -2 3 7 5 15 20 20 17 14 13 12 10 10 10 11 14 8 12 16 15 16 16 18 19 20 20 21 22 23 23 25 28 31 30 27 27 26 26 26 26 27 26 25 24 23 22 21 19 16 14 13 13 14 13 14 15 15 14 13 12 10 9 8 5 3 2 1 1 2 2 1 2 2 2 2 2 3 2 2
8 14 13 9 7 4 7 9 12 11 11 6 7 16 14 14 10 10 11 10 14 10 13 17 16 14 13 14 16 17 17 17 17 18 20 21 23 27 29 30 30 28 27 26 26 26 26 26 26 26 25 23 22 21 19 16 14 13 12 12 14 14 14 15 13 12 10 9 8 5 3 2 1 1 1 0 1 2 2 2 2 2 1 2 2 1
6 8 14 15 12 12 10 8 11 16 12 12 11 13 13 15 15 15 17 15 17 11 13 17 18 18 18 17 17 17 17 17 18 19 20 21 23 26 28 30 31 28 27 26 26 26 27 27 27 26 25 24 22 21 19 17 14 13 12 11 12 14 14 12 12 11 9 8 5 2 1 1 1 0 -1 1 1 1 1 1 1 1 2 2 2 1
10 7 7 11 12 15 16 16 15 16 15 14 15 15 13 15 14 16 17 19 16 12 12 13 19 17 17 16 17 17 18 19 20 20 21 23 26 29 29 29 28 28 27 26 26 26 27 27 27 26 25 24 22 20 19 16 14 13 13 12 12 13 12 13 10 8 7 5 2 -0 -0 -0 -1 -1 -2 -1 -1 0 1 1 1 1 2 2 2 2
9 8 6 10 12 16 17 17 16 16 16 15 16 16 16 15 16 18 18 18 18 18 18 18 18 18 19 19 19 19 20 21 21 23 25 26 27 29 29 29 29 28 27 27 26 27 27 27 27 26 25 23 21 20 19 17 14 13 12 12 12 12 12 11 7 6 4 2 -0 -2 -2 -3 -3 -3 -2 -1 0 1 1 1 2 2 2 1 1 2
9 9 16 12 8 13 13 14 16 16 14 15 15 16 17 17 17 17 17 17 18 19 19 19 19 19 20 21 21 21 22 23 25 25 25 26 28 29 29 30 30 30 29 28 27 27 27 27 27 26 25 23 21 20 19 17 14 12 11 11 11 11 11 7 4 4 1 -1 -2 -3 -4 -4 -3 -2 -1 -0 1 2 2 2 2 2 2 1 1 2
6 9 4 4 8 12 11 15 14 14 14 14 13 12 13 16 13 16 15 18 17 18 18 16 16 19 19 20 22 23 24 24 23 23 23 25 27 29 29 30 30 31 30 29 28 27 27 27 26 26 25 24 21 20 18 16 14 11 10 10 10 9 11 6 3 1 -1 -3 -4 -5 -5 -4 -3 -2 -0 1 2 2 2 2 2 1 1 1 2 2
6 7 8 5 7 8 9 12 13 13 8 6 9 7 9 18 19 19 19 20 20 19 13 12 17 15 17 19 20 20 20 21 21 22 23 25 28 29 30 31 31 31 31 29 28 27 27 27 27 26 26 24 22 20 18 17 13 11 10 9 9 10 7 3 1 -1 -3 -5 -6 -5 -4 -3 -2 -1 0 1 2 2 2 2 2 2 2 2 2 1
7 9 9 8 6 6 8 11 10 -1 -8 -1 12 18 18 13 18 17 17 18 20 19 18 18 16 18 20 20 19 20 20 20 21 23 26 26 28 30 31 31 31 31 31 29 28 28 28 28 27 27 26 24 22 20 18 16 13 11 11 10 10 8 4 -1 -1 -4 -6 -6 -6 -5 -4 -3 -1 0 1 2 3 3 3 2 2 2 2 2 1 1
12 8 9 5 8 11 11 9 7 -10 -0 14 17 22 20 18 16 16 17 17 18 21 20 20 20 20 20 21 21 22 22 22 23 26 27 29 31 31 30 31 32 31 30 28 27 27 27 27 27 26 25 23 22 20 16 13 10 11 10 9 8 6 2 -3 -4 -6 -6 -6 -6 -5 -3 -2 -1 1 2 2 3 3 3 2 2 2 2 2 1 1
9 9 4 13 3 5 4 -2 -8 2 10 14 11 24 23 21 19 19 20 22 22 22 22 21 21 21 22 22 22 23 23 24 28 29 30 30 31 31 31 31 32 31 29 28 28 28 27 27 27 26 25 24 21 18 14 11 8 7 6 6 5 5 -1 -4 -6 -7 -6 -6 -5 -4 -3 -1 -0 1 2 3 3 3 2 2 2 2 2 2 2 1
15 5 8 12 7 3 -0 2 8 9 5 6 12 20 24 16 21 17 12 17 16 17 23 22 21 21 22 22 23 23 25 28 27 24 28 30 31 32 32 32 32 32 30 29 29 28 28 28 27 26 24 22 20 17 15 10 6 4 5 5 4 2 -2 -6 -7 -6 -6 -5 -5 -3 -2 -1 0 1 2 3 2 2 2 2 2 2 3 2 2 1
18 12 14 5 7 5 5 10 7 4 -5 8 14 19 24 23 24 22 19 21 20 19 21 21 20 20 21 21 21 24 26 22 18 17 22 27 29 30 31 32 31 30 29 29 27 27 27 26 25 24 23 20 18 17 14 8 6 4 3 3 1 -1 -3 -6 -6 -6 -5 -4 -3 -3 -2 -0 1 2 2 3 2 2 2 2 2 2 3 2 2 2
16 16 11 7 6 6 4 2 -2 -3 5 7 10 16 22 26 25 22 15 15 19 20 20 21 20 21 21 20 20 25 23 20 18 18 21 24 28 29 30 30 31 30 29 29 28 28 26 26 25 23 21 19 18 16 12 7 5 3 3 2 0 -1 -3 -5 -6 -5 -4 -3 -3 -2 -1 0 1 2 2 1 -0 -1 1 2 2 3 2 2 2 2
14 7 10 12 8 7 -0 3 5 0 7 12 15 20 23 26 22 17 8 9 19 20 22 22 20 20 19 19 23 24 21 19 18 17 21 26 28 29 30 30 30 29 28 28 27 28 27 25 22 20 20 19 18 15 9 6 5 5 5 3 1 -1 -2 -4 -5 -4 -3 -3 -2 -1 0 1 2 2 1 0 -1 -2 -1 -1 -1 1 1 1 1 1
13 12 11 15 5 9 14 7 1 10 15 17 16 18 27 25 18 7 6 10 12 20 23 24 21 19 19 19 22 19 20 21 19 20 22 26 28 30 30 29 30 30 29 28 28 27 26 24 23 22 21 19 18 14 8 6 6 6 6 3 0 -0 -2 -4 -4 -3 -2 -1 -1 0 1 1 2 1 -0 -0 -0 -1 -3 -4 -1 -1 -3 -3 -1 2
3 5 9 3 7 9 10 7 12 11 15 16 20 26 27 16 8 11 15 17 16 15 16 17 17 18 18 18 19 19 20 20 22 24 25 26 28 29 30 30 29 28 28 27 27 26 25 23 22 22 20 19 17 13 8 6 7 8 7 5 3 1 -3 -2 -1 -1 -1 -0 0 1 1 1 1 0 -1 -1 -1 -4 -5 -3 -4 -5 -5 -4 -1 1
11 9 7 7 9 6 5 5 6 3 12 20 29 28 25 12 16 15 16 18 19 18 18 18 18 18 19 18 19 21 21 21 23 24 25 27 29 30 31 30 30 29 29 27 26 25 26 24 22 22 21 19 16 11 8 8 9 10 9 7 6 2 -0 1 1 1 1 1 1 -0 -1 -1 -1 -1 -2 -3 -3 -4 -6 -6 -6 -7 -7 -4 -2 1
13 4 3 5 14 3 5 5 7 11 14 25 15 8 21 19 17 19 20 17 17 20 19 18 18 18 19 19 19 19 20 22 23 25 27 29 30 31 31 30 30 29 28 28 28 27 25 25 24 22 22 20 16 11 9 9 11 11 10 9 7 1 1 1 1 2 2 2 1 -1 -2 -3 -2 -3 -4 -4 -4 -4 -7 -8 -8 -8 -8 -4 0 3
14 14 15 6 11 11 8 14 16 16 21 25 20 15 14 16 18 18 19 19 19 19 19 19 18 18 18 19 20 21 22 23 23 25 27 27 30 31 31 30 30 29 29 29 28 27 25 26 25 23 22 20 17 12 9 10 12 13 12 10 5 2 3 3 3 2 1 1 -0 -2 -4 -5 -4 -4 -5 -5 -4 -6 -7 -8 -10 -9 -8 -2 2 5
20 15 18 12 16 16 17 16 17 15 14 13 23 25 22 20 21 21 21 19 19 19 19 18 18 18 19 21 22 22 22 23 24 25 27 29 31 32 31 30 29 29 29 28 27 26 26 25 25 24 22 21 18 14 12 11 12 15 13 10 6 4 5 5 2 0 -1 -0 -1 -2 -6 -7 -8 -7 -5 -6 -7 -7 -10 -10 -8 -7 -4 1 5 6
14 19 16 16 19 9 11 13 15 15 16 16 16 18 21 22 21 20 18 18 18 18 18 19 19 20 21 22 24 24 25 26 26 27 29 31 31 32 31 31 30 30 29 28 28 26 25 24 24 24 23 22 19 15 13 12 13 15 14 8 6 5 7 4 2 -1 -2 -2 -2 -2 -4 -7 -7 -6 -6 -7 -7 -8 -7 -8 -10 -8 -2 3 5 6
16 20 15 16 14 11 10 10 13 15 17 17 18 18 18 17 18 18 20 20 20 20 20 20 21 22 24 25 25 25 26 27 28 28 29 30 31 32 32 31 31 30 29 29 28 27 26 25 24 24 24 23 22 17 15 13 13 14 13 9 8 7 5 2 1 -1 -2 -1 -1 -3 -4 -5 -1 -4 -8 -8 -7 -8 -8 -9 -9 -6 -1 3 5 5
15 17 18 18 16 17 18 16 16 14 12 13 16 16 19 19 18 17 18 19 20 21 22 22 23 24 25 25 26 26 27 27 28 28 29 30 31 31 31 31 31 30 30 29 28 26 26 25 25 25 24 24 24 20 17 16 14 14 13 10 9 6 4 2 0 -0 -2 -2 -2 -3 -2 -3 -3 -6 -9 -9 -10 -10 -8 -8 -6 -2 2 5 8 9
17 17 18 17 16 16 13 11 13 13 12 10 13 14 16 17 18 20 21 22 23 23 24 24 24 25 26 26 27 27 28 28 28 29 29 29 30 31 31 31 31 30 30 29 28 27 26 26 25 25 25 25 24 21 18 17 16 14 12 11 8 6 4 2 0 -2 -1 -2 -3 -2 -2 -1 -5 -7 -7 -10 -10 -9 -11 -1 8 7 6 6 10 11
15 15 17 18 16 13 14 15 15 14 14 15 16 18 19 20 22 22 23 23 24 24 25 25 25 26 26 27 28 29 28 28 29 30 30 30 30 31 31 31 31 31 30 28 27 26 26 26 25 25 24 25 24 23 20 18 17 14 12 10 8 7 6 3 1 -0 -2 -2 -2 -1 -1 -2 -4 -7 -8 -10 -13 -13 -9 -10 -8 10 12 11 10 10